Wind_Speed
23 24 25 26 27 28 28 29 29 30 31 32 33 34 34 34 34 34 34 34 35 35 35 36 36 37 38 38 39 40 40 41 42 43 44 43 44 45 45 45 45 45 46
25 26 27 28 29 29 30 31 31 32 33 34 35 36 36 36 36 36 36 36 36 36 37 37 37 37 38 39 39 40 41 41 42 43 45 45 44 45 45 45 46 46 45
26 27 28 30 31 31 32 33 34 35 36 37 37 38 38 38 37 37 37 37 37 37 37 37 37 37 37 38 40 40 41 42 42 43 45 46 45 45 46 46 45 46 46
28 29 30 31 32 33 34 35 37 38 38 39 40 40 40 39 38 38 38 38 37 37 36 36 36 37 37 38 39 40 41 42 43 44 45 47 47 46 46 45 46 47 46
29 30 31 33 34 35 36 38 39 40 41 41 41 41 40 39 38 38 38 37 37 37 37 37 37 37 38 39 39 40 41 42 43 44 45 46 48 48 47 46 46 46 46
30 31 33 34 36 37 39 40 41 42 42 43 42 41 40 40 39 39 38 37 36 36 36 36 37 37 38 39 40 41 42 43 44 44 45 47 48 49 48 47 47 46 46
32 33 34 36 38 40 41 42 43 43 44 43 42 41 40 40 39 39 37 36 35 35 35 35 36 37 37 38 39 40 42 43 44 45 46 47 48 50 50 49 48 47 46
33 34 36 38 40 41 43 44 44 44 44 43 42 41 40 40 39 38 36 35 34 34 34 33 34 35 36 37 38 39 40 42 44 45 46 47 49 50 51 51 50 48 46
34 36 37 39 41 43 44 45 45 45 44 43 42 41 40 39 38 36 34 33 33 33 33 33 32 33 34 35 37 38 39 41 44 46 47 48 49 51 52 52 52 50 48
35 37 38 40 43 44 45 46 46 45 44 43 42 41 39 37 36 35 34 33 32 32 32 32 32 32 33 34 35 37 39 41 43 45 47 48 49 51 53 53 53 52 50
36 38 40 42 44 46 47 47 46 45 43 42 41 40 38 36 35 34 33 33 32 31 31 31 31 31 32 33 35 36 37 39 42 44 46 47 49 51 53 54 54 53 52
37 39 42 44 46 48 48 47 46 44 43 41 39 38 37 35 34 33 33 32 30 29 29 29 29 29 30 31 32 33 35 36 39 42 45 47 48 50 52 54 55 54 54
40 42 43 46 47 48 48 47 46 45 42 40 38 37 35 35 33 32 32 31 30 28 28 27 27 27 27 27 28 29 31 34 36 39 42 44 47 49 52 53 54 55 55
44 44 45 47 48 48 48 47 46 44 41 40 38 36 35 34 33 32 31 30 28 27 26 26 25 24 24 23 23 24 26 30 33 37 40 43 46 49 51 53 53 55 56
46 47 47 48 48 48 48 47 45 43 41 39 37 35 34 33 32 31 30 28 27 26 25 24 23 21 20 21 21 21 23 26 29 33 37 41 44 47 50 52 53 54 55
48 48 49 49 49 49 48 47 45 42 40 38 36 35 33 32 31 30 29 27 26 25 23 22 20 19 19 19 19 20 21 23 26 29 33 38 42 46 49 51 52 53 54
49 50 50 49 49 49 48 46 43 41 38 37 36 34 33 32 31 29 27 26 25 24 22 21 19 18 17 17 18 18 19 20 22 25 29 34 38 43 47 50 52 52 52
51 50 49 49 49 48 47 45 42 38 36 36 35 33 32 31 29 28 26 25 25 23 21 20 19 17 16 16 16 16 16 17 19 22 25 29 35 39 44 48 50 51 52
52 50 48 48 48 47 45 43 39 37 34 34 33 32 31 30 28 26 25 25 24 22 20 19 18 16 15 14 13 13 13 14 17 20 23 26 31 37 41 45 48 50 51
50 49 48 48 47 45 43 40 37 35 33 32 32 31 30 29 26 25 24 23 23 22 20 18 17 15 13 12 11 10 10 11 13 17 20 24 27 32 38 42 45 48 49
50 49 48 47 46 43 40 37 35 33 31 30 30 29 28 27 25 24 23 22 22 21 19 17 15 13 11 10 9 8 8 9 11 14 18 22 25 29 34 38 43 46 48
50 48 47 45 43 39 37 35 33 32 30 29 28 28 27 25 24 23 22 21 21 20 18 16 14 12 10 8 7 8 8 9 12 13 17 21 24 27 31 35 39 43 46
49 47 45 43 40 37 34 32 31 29 28 27 26 26 25 24 23 22 21 20 20 19 16 14 12 11 9 8 7 7 7 8 10 13 16 20 24 27 31 34 36 39 43
47 44 42 39 36 34 32 30 28 27 26 25 24 24 23 22 21 20 19 19 19 18 15 12 11 10 9 8 7 6 7 8 10 12 16 18 22 26 30 32 35 37 39
43 41 38 36 33 31 29 27 26 25 24 23 22 21 21 20 20 19 18 18 17 16 14 12 10 9 8 7 7 6 7 9 11 12 15 17 20 23 28 31 34 37 38
39 37 35 32 30 28 26 25 24 22 21 20 19 19 19 19 18 17 17 16 14 14 12 10 9 8 7 6 6 6 6 9 11 13 14 16 19 23 27 30 33 36 38
Wind_Direction
322 323 324 324 323 322 321 320 319 317 316 314 312 310 308 305 302 299 296 293 290 285 281 277 273 268 265 260 256 252 249 245 243 241 241 241 239 236 234 232 230 229 229
324 325 325 325 325 324 323 322 320 319 317 315 313 311 308 306 303 300 296 293 289 285 281 277 273 269 264 260 256 253 249 246 243 240 240 240 239 237 234 232 231 228 227
325 326 326 326 326 325 325 323 321 319 317 316 314 311 309 307 304 300 297 293 289 285 280 276 273 269 265 261 257 253 250 247 243 240 239 239 239 237 235 232 230 228 226
326 327 327 326 326 326 325 323 321 319 317 316 315 312 310 307 305 301 298 294 290 285 281 277 273 269 265 262 258 255 252 249 245 242 239 238 237 236 235 232 230 228 226
327 327 327 327 326 326 325 324 322 320 318 316 315 313 311 308 305 302 299 295 292 287 282 278 274 269 266 263 260 256 253 249 246 242 239 237 236 235 234 232 230 229 227
326 326 326 326 326 325 324 323 322 320 318 317 316 314 312 309 306 303 299 296 293 289 284 280 275 270 267 264 260 257 253 249 245 242 239 236 235 234 233 230 229 228 227
326 325 325 325 326 326 325 324 323 321 320 318 317 315 313 310 307 304 301 298 295 291 287 282 277 272 268 265 261 256 252 248 244 241 239 236 234 233 232 230 228 226 226
324 324 324 324 325 325 325 324 323 322 321 320 318 316 314 311 309 306 302 299 296 293 290 286 280 275 271 266 261 257 252 248 244 241 238 236 233 232 231 229 227 226 225
323 323 324 325 326 326 325 325 324 323 322 321 319 317 316 314 311 308 304 301 298 295 292 288 283 277 272 267 262 258 254 249 245 241 237 235 233 230 229 227 227 225 223
321 323 324 326 327 327 327 326 325 324 323 321 320 319 317 316 313 310 307 304 301 298 294 289 284 279 274 268 263 259 255 250 244 240 237 234 232 230 228 226 225 224 223
320 322 325 327 327 327 327 326 325 325 324 322 321 320 319 317 314 312 310 307 303 300 297 291 286 281 275 270 266 260 255 249 244 239 235 233 231 229 227 226 224 223 223
320 321 323 326 327 327 327 327 326 326 325 324 323 322 320 318 316 315 313 310 306 303 300 295 290 285 279 274 268 261 255 248 243 238 234 232 230 228 226 225 224 223 222
318 320 322 324 326 327 327 326 326 326 325 324 324 324 322 320 318 317 315 313 309 306 304 300 295 289 284 278 271 263 255 248 242 237 233 230 228 226 225 224 223 222 221
317 319 321 323 324 325 325 325 326 326 325 325 325 325 324 322 320 319 318 315 313 311 308 305 299 294 286 279 272 264 256 248 243 238 234 230 227 225 223 222 221 220 221
316 317 319 321 322 323 324 325 325 325 325 325 325 325 324 324 322 321 320 317 315 313 311 308 304 297 290 284 275 266 258 251 245 239 234 230 226 223 221 221 220 219 219
314 315 316 317 320 321 323 324 324 323 323 324 324 325 325 324 324 323 322 320 318 316 313 312 308 300 293 287 278 271 263 255 246 239 233 228 225 222 219 218 218 218 218
312 313 313 314 317 319 321 322 322 321 322 323 324 324 325 325 325 324 325 323 322 320 315 313 311 305 298 292 283 274 266 256 246 237 230 226 223 220 218 217 216 216 217
309 309 310 312 315 317 319 319 319 319 320 322 323 324 325 325 325 325 325 326 324 322 318 314 312 308 303 296 287 277 266 253 241 233 225 221 218 216 215 215 214 213 214
306 306 307 309 312 314 316 316 315 317 318 320 321 322 324 325 324 325 325 327 327 324 320 316 313 307 303 298 291 279 266 250 238 230 221 216 215 214 213 213 212 211 211
304 304 305 307 309 311 312 313 312 314 316 318 319 321 323 324 324 324 325 326 327 325 321 317 314 308 303 298 288 279 263 247 234 225 217 213 212 211 211 211 210 209 209
303 302 303 304 306 307 308 309 310 312 313 315 317 319 321 322 322 322 322 324 325 325 322 317 315 312 305 297 284 272 255 241 229 219 211 208 207 205 206 207 207 207 207
300 300 301 301 302 303 304 305 307 308 309 311 313 316 319 320 320 320 320 322 323 323 323 320 316 310 302 293 279 265 250 236 225 214 206 204 204 203 203 203 205 208 208
298 298 298 299 299 300 300 301 303 305 306 307 310 314 317 318 319 319 319 321 322 322 320 319 317 312 303 291 276 260 244 228 218 210 203 202 202 201 201 201 202 206 208
295 295 295 295 295 296 296 297 300 301 302 304 307 311 315 317 319 319 318 319 321 322 320 314 312 313 304 287 271 259 239 221 214 208 201 199 199 198 198 199 201 202 205
292 291 291 291 291 291 291 293 295 297 298 300 304 308 312 315 318 320 321 321 322 322 319 311 305 304 299 283 270 256 234 220 214 211 203 198 196 196 196 197 198 199 201
289 288 287 286 286 286 286 288 290 292 294 296 300 305 309 314 317 319 322 325 324 324 324 318 304 293 286 278 263 250 230 215 210 209 207 202 197 197 196 196 196 196 198
Height
5818 5814 5809 5805 5800 5796 5791 5786 5781 5776 5772 5767 5762 5757 5753 5749 5744 5741 5737 5734 5731 5728 5726 5724 5723 5722 5722 5723 5724 5726 5729 5731 5735 5738 5740 5744 5748 5752 5758 5762 5767 5773 5779
5813 5808 5804 5799 5794 5789 5784 5779 5774 5769 5764 5758 5753 5748 5743 5739 5734 5730 5726 5723 5720 5717 5714 5713 5711 5710 5710 5711 5712 5714 5716 5719 5723 5726 5729 5733 5737 5742 5746 5752 5757 5763 5769
5807 5802 5797 5792 5787 5782 5777 5772 5766 5761 5755 5750 5744 5739 5733 5728 5723 5719 5715 5711 5708 5705 5702 5700 5699 5698 5698 5698 5700 5701 5704 5707 5710 5714 5718 5721 5726 5731 5736 5741 5747 5753 5759
5801 5796 5791 5786 5781 5775 5770 5764 5758 5752 5746 5740 5735 5729 5723 5717 5712 5707 5703 5699 5695 5692 5690 5688 5686 5686 5685 5686 5687 5689 5691 5694 5697 5702 5706 5710 5715 5719 5725 5731 5736 5742 5749
5795 5790 5785 5779 5774 5768 5762 5756 5750 5744 5737 5731 5724 5718 5712 5706 5701 5696 5691 5687 5683 5680 5677 5675 5674 5673 5673 5673 5674 5676 5678 5681 5684 5688 5693 5698 5703 5708 5714 5720 5726 5732 5738
5789 5784 5778 5772 5766 5760 5754 5748 5741 5734 5727 5721 5714 5707 5701 5695 5690 5685 5680 5675 5671 5668 5665 5662 5660 5660 5659 5660 5661 5662 5665 5668 5671 5675 5680 5685 5691 5696 5702 5708 5715 5722 5729
5782 5777 5771 5765 5759 5753 5746 5739 5732 5725 5718 5711 5704 5697 5690 5684 5679 5673 5668 5663 5659 5656 5652 5649 5647 5646 5646 5646 5647 5648 5651 5654 5658 5662 5667 5672 5678 5684 5690 5697 5703 5711 5718
5775 5770 5764 5758 5751 5744 5737 5730 5723 5715 5708 5701 5693 5686 5680 5674 5668 5662 5657 5652 5648 5644 5640 5637 5635 5633 5632 5632 5633 5635 5637 5640 5644 5648 5654 5659 5665 5670 5678 5685 5692 5700 5707
5768 5762 5756 5750 5743 5736 5729 5721 5713 5706 5698 5691 5683 5676 5670 5663 5657 5651 5646 5641 5637 5633 5629 5625 5623 5620 5619 5619 5620 5621 5623 5626 5629 5634 5640 5645 5652 5658 5665 5673 5681 5689 5697
5760 5755 5748 5742 5735 5728 5720 5712 5704 5696 5688 5681 5674 5666 5660 5654 5647 5641 5636 5631 5627 5622 5618 5614 5611 5609 5607 5606 5606 5608 5610 5612 5615 5620 5626 5632 5638 5645 5653 5661 5669 5677 5685
5752 5746 5740 5733 5726 5719 5711 5703 5695 5687 5679 5672 5665 5657 5651 5644 5638 5632 5626 5621 5616 5611 5607 5603 5600 5597 5595 5594 5594 5594 5596 5598 5601 5606 5612 5618 5625 5633 5640 5649 5657 5666 5674
5744 5738 5731 5725 5717 5709 5702 5694 5686 5678 5670 5663 5656 5649 5642 5635 5629 5623 5617 5611 5606 5601 5597 5593 5589 5586 5584 5582 5581 5582 5582 5585 5588 5593 5599 5605 5612 5620 5628 5637 5645 5654 5663
5735 5729 5722 5715 5708 5700 5692 5685 5677 5669 5662 5655 5647 5641 5634 5627 5620 5614 5609 5603 5597 5592 5588 5583 5580 5576 5574 5572 5571 5570 5571 5573 5577 5581 5587 5593 5600 5607 5616 5624 5633 5642 5651
5726 5719 5712 5705 5698 5691 5683 5675 5668 5660 5653 5646 5639 5633 5626 5619 5613 5606 5600 5595 5589 5584 5580 5575 5571 5568 5565 5563 5561 5561 5561 5563 5566 5570 5575 5581 5588 5595 5604 5613 5622 5631 5640
5716 5709 5702 5695 5688 5681 5674 5666 5659 5652 5645 5639 5632 5625 5619 5612 5606 5599 5593 5587 5582 5577 5572 5568 5564 5560 5557 5555 5554 5553 5554 5555 5557 5560 5564 5570 5576 5584 5593 5601 5611 5620 5630
5706 5699 5692 5685 5678 5671 5664 5658 5650 5644 5637 5631 5624 5618 5612 5605 5599 5593 5587 5581 5576 5570 5566 5561 5557 5554 5551 5549 5548 5547 5546 5547 5548 5551 5554 5559 5566 5574 5582 5591 5600 5610 5620
5695 5689 5682 5675 5668 5661 5655 5649 5642 5636 5629 5623 5617 5611 5605 5599 5593 5587 5581 5575 5570 5565 5560 5556 5552 5549 5546 5543 5541 5540 5539 5539 5540 5542 5545 5550 5557 5564 5572 5581 5591 5601 5610
5683 5677 5671 5664 5658 5652 5646 5640 5634 5628 5622 5616 5610 5604 5598 5592 5587 5581 5575 5570 5565 5560 5555 5551 5547 5544 5541 5538 5536 5534 5533 5533 5534 5535 5538 5543 5549 5556 5563 5572 5582 5592 5602
5672 5666 5659 5653 5648 5642 5637 5631 5625 5620 5614 5609 5603 5597 5592 5586 5581 5575 5570 5565 5560 5555 5551 5546 5543 5539 5537 5534 5531 5530 5528 5528 5529 5530 5533 5537 5542 5549 5556 5564 5573 5583 5593
5660 5654 5648 5643 5638 5632 5627 5622 5617 5612 5607 5602 5597 5591 5586 5580 5575 5570 5565 5560 5555 5551 5546 5542 5539 5535 5533 5530 5528 5526 5525 5524 5525 5526 5529 5532 5537 5543 5550 5558 5566 5576 5585
5647 5642 5637 5632 5627 5622 5618 5613 5609 5604 5600 5595 5590 5586 5580 5575 5571 5566 5561 5556 5552 5547 5543 5538 5535 5532 5529 5527 5525 5524 5523 5523 5523 5524 5526 5529 5534 5539 5545 5553 5560 5569 5578
5634 5629 5625 5620 5616 5612 5608 5604 5600 5596 5592 5588 5584 5580 5575 5570 5566 5561 5557 5552 5548 5543 5539 5535 5532 5529 5526 5524 5523 5522 5521 5521 5521 5522 5524 5527 5531 5536 5542 5548 5556 5563 5572
5620 5616 5612 5608 5605 5602 5598 5595 5592 5589 5585 5582 5578 5574 5570 5565 5561 5557 5552 5548 5544 5540 5536 5532 5529 5526 5524 5522 5520 5520 5519 5519 5520 5521 5522 5525 5528 5533 5539 5545 5551 5559 5566
5606 5603 5599 5596 5594 5591 5589 5586 5584 5581 5578 5575 5572 5568 5564 5560 5556 5552 5548 5544 5540 5536 5532 5529 5526 5524 5521 5520 5519 5518 5518 5518 5519 5519 5521 5523 5527 5530 5536 5541 5548 5555 5562
5592 5589 5587 5585 5583 5581 5579 5578 5576 5573 5571 5569 5566 5563 5559 5556 5552 5548 5544 5540 5536 5532 5529 5526 5524 5522 5520 5518 5517 5516 5516 5516 5517 5518 5520 5522 5525 5529 5533 5538 5545 5551 5558
5578 5577 5575 5574 5573 5572 5570 5569 5568 5566 5564 5562 5560 5557 5554 5551 5547 5544 5540 5537 5533 5530 5526 5524 5521 5519 5518 5516 5515 5515 5515 5515 5516 5517 5518 5520 5523 5526 5531 5536 5542 5548 5555